Terminal Aerodrome Forecast
Issued by NWS Chicago, IL

Home | Current Version | Previous Version | Text Only | Print | Product List | Glossary Off
Versions: 1 2 3 4 5 6 7 8 9 10 11 12 13 14 15 16 17 18 19 20 21

000
FTUS43 KLOT 281100
TAFRFD
TAF
KRFD 281120Z 2812/2912 28005KT P6SM SKC
     FM290100 VRB03KT P6SM BKN120=

USA.gov is the U.S. government's official web portal to all federal, state and local government web resources and services.